Lapse_Rate
6.4 6.8 7.9 8.1 8.1 8.1 8.0 7.9 7.8 7.5 7.8 8.1 8.5 8.6 8.4 8.8 8.8 8.9 8.9 8.9 8.8 8.4 8.7 8.4 8.3 8.3 8.2 8.0 7.8 7.8 7.5 7.4 7.3 7.2 7.1 6.9 6.9 6.8 6.7 6.7 6.6 6.4 6.6 6.6
6.2 7.2 7.6 8.0 8.0 8.0 7.9 7.6 7.4 7.7 7.9 8.4 8.8 8.7 8.6 8.6 8.9 8.9 8.8 8.8 8.8 8.7 8.5 8.7 8.6 8.3 8.1 8.1 8.0 7.9 7.6 7.5 7.4 7.3 7.0 6.9 6.7 6.6 6.6 6.7 6.5 6.5 6.4 6.5
6.3 7.3 7.7 7.5 7.2 7.4 7.7 7.8 7.3 7.9 8.1 8.1 8.6 8.7 8.8 8.8 9.0 8.9 8.8 8.8 8.8 8.5 8.4 8.5 8.4 8.3 8.0 7.8 7.7 7.5 7.3 7.2 7.1 7.1 7.0 6.9 6.7 6.6 6.4 6.5 6.6 6.7 6.7 6.9
6.5 7.5 6.9 6.7 7.3 7.6 7.8 7.9 7.8 7.5 8.3 8.4 8.6 8.6 8.5 8.5 8.8 9.0 8.7 8.7 8.8 8.6 8.2 8.3 8.2 8.3 8.1 7.7 7.5 7.2 7.1 6.9 6.9 6.9 6.8 6.8 6.7 6.5 6.3 6.4 6.4 6.5 6.5 6.3
5.8 7.2 7.2 7.2 7.2 7.6 7.1 6.6 7.5 7.8 7.9 8.1 8.5 8.7 8.5 8.3 8.5 8.5 8.6 8.8 8.8 8.8 8.3 8.3 8.2 7.9 7.8 7.5 7.2 7.1 6.8 6.7 6.7 6.6 6.5 6.5 6.5 6.5 6.5 6.6 6.7 6.6 6.5 6.2
6.2 6.1 5.8 7.0 7.6 8.1 6.7 6.2 7.4 7.6 7.9 8.2 8.6 8.6 8.8 8.8 8.6 8.7 8.6 8.8 8.6 8.4 8.4 8.4 8.1 7.9 7.7 7.5 7.3 6.9 6.9 6.7 6.6 6.7 6.7 6.8 6.9 7.0 7.1 7.2 7.0 6.2 5.9 6.1
6.3 6.3 6.7 7.2 7.5 7.3 6.2 7.0 7.9 7.4 7.3 7.9 8.3 8.2 8.6 8.8 8.8 8.6 8.5 8.4 8.3 8.1 8.2 8.0 7.8 7.8 7.6 7.2 7.2 7.0 6.8 6.8 6.8 6.8 7.0 7.1 7.0 7.0 7.0 7.0 7.0 6.5 5.7 5.5
6.7 6.5 6.2 7.8 7.4 7.3 7.3 8.1 7.5 7.1 7.4 7.9 8.0 7.9 8.1 8.7 8.6 8.5 8.2 8.0 7.9 8.0 8.0 7.9 7.9 7.8 7.7 7.5 7.3 7.2 7.1 7.1 7.1 7.2 7.2 7.0 7.0 6.9 6.9 6.8 6.5 6.0 5.6 6.0
7.1 7.4 7.6 7.3 7.3 7.4 6.7 7.4 7.4 7.6 7.2 7.8 7.9 7.9 8.1 8.3 8.3 8.3 8.2 8.0 7.9 8.1 8.2 7.9 7.8 7.9 7.8 7.6 7.5 7.4 7.2 7.1 7.1 7.0 6.9 6.8 6.8 6.7 6.7 6.6 6.0 5.4 5.6 5.6
7.9 8.1 7.9 7.9 7.5 7.1 6.8 6.8 7.0 6.7 7.4 7.6 7.9 8.0 8.1 8.2 8.3 8.1 8.1 8.0 8.0 8.0 7.9 8.0 7.9 7.8 7.6 7.5 7.4 7.3 7.1 7.0 7.0 6.9 6.8 6.6 6.5 6.2 5.8 5.1 5.2 5.4 5.5 5.5
8.1 8.2 8.2 8.1 7.7 7.3 7.4 7.1 6.5 6.8 6.9 7.3 7.1 7.6 7.6 7.7 7.7 7.8 7.7 7.8 7.9 7.9 8.0 7.8 7.6 7.6 7.3 7.1 7.0 6.7 6.5 6.4 6.5 6.4 6.1 5.8 5.7 5.3 5.1 5.2 5.4 5.4 5.4 5.4
7.8 8.4 8.0 7.9 7.5 7.1 6.6 6.8 6.6 6.4 6.3 6.4 7.0 7.6 7.5 7.5 7.4 7.4 7.6 7.7 7.8 7.7 7.6 7.6 7.3 6.9 6.7 6.6 6.5 6.3 5.9 5.6 5.5 5.3 5.4 5.4 5.0 4.6 5.0 5.0 4.9 4.7 4.5 4.5
7.8 8.3 7.7 7.7 7.6 7.4 6.5 6.8 6.9 7.1 6.4 6.7 6.9 6.4 6.9 6.3 7.1 7.5 7.6 7.4 7.1 7.2 7.3 7.1 6.9 6.8 6.7 6.5 6.3 6.2 6.0 5.8 5.5 5.2 5.0 4.7 4.4 4.4 4.4 4.3 4.3 4.3 4.3 4.6
7.4 8.0 7.5 7.6 7.6 7.6 7.4 6.8 6.8 7.1 7.0 6.7 6.7 6.6 6.2 6.1 6.4 7.0 7.2 7.1 7.0 7.0 6.9 6.7 6.5 6.3 5.9 5.8 5.5 5.3 5.0 4.9 4.9 4.7 4.5 4.3 4.2 4.1 4.1 4.1 4.1 4.2 4.1 4.2
7.2 7.4 7.5 8.0 7.3 7.3 7.6 7.0 6.7 6.6 6.5 6.5 7.0 6.4 6.7 6.6 6.4 6.8 6.8 6.8 6.7 6.6 6.4 6.4 6.2 5.7 5.4 5.1 4.7 4.5 4.3 4.3 4.3 4.2 4.1 4.1 4.1 4.1 4.0 4.0 4.0 4.1 4.0 4.0
7.3 7.0 7.4 7.6 7.6 7.4 7.4 7.2 7.0 7.1 7.0 7.1 7.1 6.9 6.8 7.0 7.0 6.7 6.6 6.5 6.4 6.5 6.4 6.0 5.6 5.3 5.0 4.8 4.6 4.5 4.4 4.4 4.3 4.2 4.2 4.1 4.1 3.9 3.9 3.8 3.8 3.8 3.6 3.5
7.1 6.8 7.0 7.1 7.3 7.5 7.6 7.5 7.3 7.3 7.2 7.4 7.4 7.3 7.0 6.8 6.6 6.4 6.4 6.3 6.2 6.0 5.8 5.4 5.2 5.0 4.9 4.7 4.6 4.6 4.4 4.3 4.1 4.0 4.1 4.0 3.9 3.8 3.7 3.5 3.4 3.4 3.4 3.3
7.6 7.3 7.6 7.3 7.1 7.3 7.5 7.4 7.4 7.6 7.5 7.4 7.4 7.2 6.9 6.6 6.5 6.3 6.2 5.9 5.6 5.3 5.1 4.9 4.7 4.8 4.7 4.6 4.4 4.3 4.2 4.1 4.0 4.0 3.9 3.8 3.7 3.7 3.6 3.6 3.5 3.5 3.3 3.1
7.4 7.4 7.3 7.2 7.2 7.3 7.2 7.3 7.3 7.4 7.4 7.2 7.1 6.8 6.5 6.2 5.9 5.6 5.5 5.2 5.0 4.8 4.8 4.7 4.6 4.5 4.3 4.2 4.2 4.1 4.0 4.0 4.0 3.9 3.8 3.8 3.7 3.7 3.6 3.5 3.3 3.2 3.0 2.8
7.2 7.0 7.2 6.9 6.9 7.1 7.2 7.3 7.2 7.2 7.1 6.8 6.3 6.1 5.9 5.7 5.5 5.4 5.1 4.7 4.6 4.6 4.6 4.6 4.3 4.3 4.2 4.1 4.0 4.0 3.9 3.8 3.7 3.7 3.7 3.7 3.6 3.4 3.2 3.1 3.0 2.8 2.6 2.4
6.7 6.6 6.5 6.5 6.7 6.9 6.9 6.5 6.7 6.7 6.7 6.4 6.2 5.9 5.4 5.2 4.9 4.6 4.5 4.4 4.4 4.4 4.4 4.3 4.2 4.1 4.1 4.0 3.9 3.8 3.7 3.7 3.7 3.6 3.4 3.4 3.3 3.2 3.1 2.9 2.7 2.6 2.5 2.5
6.4 6.1 6.6 6.8 6.3 6.4 6.4 6.4 6.2 6.2 6.2 5.9 5.5 5.2 4.6 4.5 4.4 4.4 4.3 4.3 4.3 4.2 4.1 4.1 4.2 4.0 3.9 3.8 3.7 3.7 3.6 3.6 3.5 3.5 3.4 3.3 3.2 3.0 2.9 2.9 3.1 3.1 2.7 2.3
6.6 6.4 6.4 6.4 6.3 6.3 6.1 6.0 6.0 5.9 5.4 4.7 4.4 4.4 4.3 4.2 4.3 4.2 4.1 4.2 4.3 4.3 4.2 4.0 3.9 3.9 3.7 3.6 3.5 3.6 3.6 3.5 3.4 3.4 3.3 3.2 3.1 3.2 3.4 3.2 2.9 2.7 2.6 2.5
6.4 6.4 6.3 5.9 5.5 5.6 5.7 5.4 4.9 4.5 4.3 4.4 4.3 4.2 4.2 4.1 4.2 4.2 4.3 4.3 4.1 3.9 3.8 3.8 3.6 3.5 3.5 3.6 3.6 3.5 3.4 3.4 3.4 3.2 3.2 3.5 3.7 3.3 3.0 2.8 2.8 2.7 2.6 2.9
6.3 6.1 5.9 5.5 5.1 4.8 4.7 4.5 4.1 4.2 4.2 4.1 4.1 4.1 4.3 4.2 4.3 4.2 4.0 3.9 3.8 3.7 3.6 3.5 3.5 3.6 3.7 3.6 3.5 3.5 3.6 3.5 3.5 3.8 4.1 3.7 3.3 3.1 3.2 3.1 3.1 3.5 3.9 4.3
5.3 5.1 4.8 4.6 4.5 4.3 4.0 3.9 4.1 4.1 4.0 4.0 4.3 4.3 4.2 4.1 3.9 3.8 3.8 3.6 3.5 3.5 3.6 3.8 3.8 3.7 3.6 3.6 3.7 3.7 3.6 3.9 4.2 4.0 3.7 3.5 3.5 3.6 3.6 3.9 4.3 4.5 4.8 5.1
4.5 4.5 4.3 4.2 4.1 4.0 4.1 3.9 3.8 4.1 4.2 4.2 4.1 4.1 3.9 3.9 3.7 3.6 3.6 3.6 3.8 3.8 3.7 3.7 3.7 3.7 3.8 3.9 3.9 4.1 4.4 4.3 4.0 3.8 3.7 3.8 3.9 4.0 4.4 4.7 5.0 5.2 5.3 5.4
Wind_Speed
12 17 12 3 5 4 4 6 10 7 11 11 10 9 9 9 8 4 8 8 10 13 13 13 12 14 15 17 16 17 18 18 19 16 10 8 9 12 13 15 14 11 12 11
11 8 17 18 15 10 9 6 8 7 10 8 10 8 6 10 8 9 11 9 10 10 9 11 11 12 13 13 14 12 15 14 6 6 7 7 6 6 5 4 4 6 9 11
6 4 4 5 16 16 15 4 4 8 8 6 7 9 10 9 9 10 9 10 9 9 11 8 4 5 5 5 6 7 8 7 6 7 7 7 7 7 7 8 7 8 8 9
4 2 5 4 8 13 14 18 11 9 6 9 12 9 7 7 9 9 7 8 7 5 5 5 5 7 7 7 7 7 8 7 7 6 6 6 7 7 5 5 7 7 6 7
2 4 4 2 5 9 9 11 11 12 9 7 5 0 3 2 4 7 8 5 5 5 5 7 6 8 9 8 8 8 7 6 5 5 5 5 5 5 4 6 6 6 7 10
2 6 8 2 6 4 9 10 10 10 11 7 3 4 5 5 4 7 8 6 7 8 8 8 5 7 8 7 7 6 6 6 6 6 6 6 6 6 4 6 7 7 9 9
5 3 7 9 6 2 5 7 4 4 6 6 5 6 1 7 5 6 8 10 9 7 8 7 6 8 9 8 8 7 7 7 6 6 6 6 7 6 8 8 10 10 11 10
3 2 6 5 3 2 5 6 5 4 8 6 7 4 6 5 8 11 12 10 8 9 8 6 6 8 8 8 6 8 8 8 7 7 6 6 9 8 9 9 10 9 10 9
9 6 6 5 3 3 4 1 2 5 7 5 3 3 6 6 8 9 10 9 7 9 9 7 6 6 9 7 9 10 12 12 11 12 11 10 10 9 8 8 7 7 7 7
2 9 16 10 6 4 8 5 6 4 6 1 6 6 7 7 7 8 8 9 10 11 11 10 9 11 11 12 12 13 13 11 10 11 11 11 9 8 7 6 6 6 5 5
6 7 7 12 7 8 9 7 4 9 4 2 8 5 9 7 6 9 11 11 11 12 12 12 12 12 10 10 13 12 11 10 10 10 11 11 11 7 7 7 6 4 3 3
6 9 4 7 6 6 10 8 9 7 7 0 5 7 13 10 9 10 12 12 13 13 14 12 14 14 12 10 11 13 12 9 8 8 7 6 6 7 14 11 13 13 9 6
4 5 4 9 5 3 4 8 3 4 3 9 11 17 15 13 12 16 15 15 14 15 13 13 16 16 13 13 14 14 12 9 7 7 6 5 5 4 3 5 10 10 9 8
10 7 7 4 3 6 14 11 14 18 16 15 16 17 20 17 16 16 17 15 15 16 15 15 16 15 12 12 13 13 12 14 8 7 6 6 6 5 4 4 3 3 3 2
11 8 7 4 6 8 12 13 16 15 14 15 15 16 17 21 17 16 15 15 16 17 15 15 15 13 12 13 13 12 9 7 7 7 6 7 5 6 6 5 5 4 3 7
7 4 8 9 8 8 10 17 14 15 14 14 17 19 18 19 18 17 15 13 16 14 13 14 14 11 11 12 12 10 10 13 10 7 6 7 6 5 5 4 4 4 4 5
5 4 5 7 7 10 11 13 13 16 15 17 18 17 19 19 19 17 16 15 16 15 13 13 12 11 12 11 11 8 7 8 10 8 7 6 6 6 5 5 5 4 4 6
5 4 9 12 13 14 13 14 14 16 16 17 17 17 17 17 17 16 15 15 16 16 14 12 12 12 13 12 11 8 7 7 7 7 6 6 6 6 5 5 5 5 4 4
13 12 14 17 14 16 14 15 16 16 15 16 18 18 17 16 16 15 14 15 14 14 11 12 14 14 13 13 10 8 7 7 7 7 7 7 6 6 5 4 4 3 3 3
17 15 16 17 15 17 18 15 17 17 15 17 18 18 18 15 15 16 16 17 13 9 11 12 12 12 12 12 11 7 8 8 7 6 5 5 5 5 4 6 5 4 4 3
16 15 16 16 16 16 18 14 16 17 15 15 18 17 17 15 13 13 15 11 12 12 13 13 10 8 7 8 8 7 7 6 6 6 6 4 4 4 4 4 4 4 4 4
13 15 14 15 17 17 16 16 17 17 17 17 16 16 16 16 15 15 13 12 8 12 9 8 7 10 8 10 6 6 7 7 6 4 4 4 4 3 3 4 4 4 4 4
13 14 15 17 18 17 17 16 16 17 16 14 13 13 12 10 8 10 10 10 8 10 8 7 9 10 9 6 6 6 6 5 4 4 3 3 2 3 3 3 3 3 3 4
16 16 17 17 17 17 19 16 17 16 16 15 14 12 12 10 10 9 9 11 12 10 7 7 8 11 9 5 5 5 5 4 3 3 3 3 3 2 3 2 3 3 4 4
15 15 16 16 17 13 17 16 16 15 16 15 14 13 12 8 8 7 8 8 12 9 7 9 9 8 5 4 4 4 3 3 2 2 2 2 1 2 3 3 3 3 3 4
13 10 10 13 11 9 9 9 10 9 10 10 9 8 8 8 8 8 7 8 8 8 6 4 3 3 4 3 3 3 2 2 3 3 2 2 2 3 3 4 4 3 5 8
12 14 11 10 9 9 9 9 10 9 9 9 10 7 7 7 8 8 8 6 5 4 4 3 5 4 3 2 2 1 4 6 7 4 3 3 4 4 6 7 10 12 14 13
Wind_Direction
280 238 242 178 197 236 226 224 206 205 222 232 216 222 225 238 268 256 210 196 208 208 211 211 199 205 207 215 210 206 210 212 219 221 212 206 194 190 195 200 218 206 194 195
281 248 224 236 249 249 243 271 258 253 236 226 242 217 238 218 212 209 221 201 203 211 203 211 202 200 201 205 205 192 202 209 171 154 160 174 179 184 165 159 185 195 193 186
250 274 218 258 221 232 256 195 240 213 218 241 248 223 236 242 219 209 190 202 216 192 212 215 177 162 172 112 106 139 132 131 136 136 134 135 141 159 168 170 173 187 188 172
292 139 226 256 177 211 235 243 246 253 267 247 236 236 250 222 200 211 196 199 169 143 122 110 103 92 99 99 100 109 112 120 124 134 141 146 150 157 151 159 160 154 146 134
251 233 294 255 202 199 206 245 243 228 244 270 262 260 333 283 223 195 181 159 116 101 98 109 95 100 100 93 96 106 115 119 118 123 125 121 116 115 113 117 112 111 110 107
148 264 218 261 231 53 23 253 256 196 220 224 166 127 244 176 126 110 95 86 98 89 98 102 84 100 97 93 92 85 85 86 88 99 111 113 115 115 101 102 99 93 77 68
177 247 289 251 259 296 136 236 306 105 278 138 190 204 244 131 102 88 102 107 105 95 102 103 100 103 91 88 80 85 86 86 85 87 95 106 104 101 103 94 89 82 83 76
101 61 286 238 353 152 252 234 302 265 242 247 193 164 143 141 122 112 108 107 104 104 101 95 93 99 95 92 97 94 90 88 81 71 78 82 89 83 81 91 90 90 93 82
182 231 258 281 274 135 282 206 247 318 288 212 174 171 126 122 103 106 113 107 97 106 97 75 80 98 100 98 92 85 75 70 69 65 57 59 70 72 75 77 89 97 97 96
131 243 246 264 261 204 224 213 315 307 297 140 103 117 98 91 102 105 104 101 100 90 77 68 65 70 83 89 89 85 82 78 75 76 72 63 65 62 69 68 80 86 93 105
249 288 290 279 242 247 249 199 219 285 268 157 139 144 114 129 111 102 89 81 86 90 86 78 78 75 77 91 101 92 85 80 76 74 75 74 64 62 67 50 66 91 93 123
241 261 206 267 283 155 247 216 232 209 261 236 133 110 109 94 91 92 92 92 87 82 81 77 75 67 60 67 85 95 86 77 77 82 80 85 89 82 74 85 86 86 84 101
287 319 247 268 292 231 85 1 5 156 210 117 108 101 78 89 84 88 83 80 81 83 79 78 75 69 63 68 75 76 80 74 69 62 59 61 64 76 91 69 72 76 84 102
298 335 311 255 236 69 100 81 62 56 53 77 82 87 106 98 84 81 80 86 84 81 76 75 72 64 56 65 70 69 68 61 64 59 57 55 53 53 49 46 39 45 47 8
277 250 257 117 71 56 90 66 69 75 73 68 75 96 94 92 89 85 84 83 82 77 70 67 65 57 55 63 67 66 67 65 63 62 57 52 47 47 40 41 39 31 34 50
297 131 96 80 74 84 81 100 101 90 85 83 86 85 87 90 88 79 72 72 79 72 67 67 63 55 59 64 69 66 61 59 57 57 53 50 44 43 39 34 39 37 38 27
140 125 109 95 91 75 82 88 97 97 102 97 97 99 96 90 85 81 76 73 73 72 68 67 67 64 63 62 67 67 67 63 61 59 50 47 48 45 38 37 34 36 45 30
23 46 91 117 123 112 97 95 98 102 103 105 101 95 93 92 96 91 85 83 77 70 60 62 70 70 66 63 64 65 64 61 57 57 52 47 49 49 44 47 41 38 31 42
64 76 89 99 109 108 106 105 102 102 104 105 101 96 95 94 95 94 91 83 77 76 64 66 67 67 66 63 63 63 62 62 58 53 54 47 44 36 32 23 16 12 5 8
86 85 90 96 99 106 105 101 100 95 94 98 98 96 92 88 90 88 83 76 71 79 79 72 68 67 65 60 62 65 63 60 64 63 53 50 44 40 27 25 19 10 357 347
101 93 95 98 99 96 95 100 100 97 95 95 98 97 97 95 89 89 87 85 74 74 72 66 69 66 63 64 62 62 67 65 60 58 56 49 40 30 24 17 14 16 9 10
97 99 99 99 92 92 91 96 97 97 95 93 92 95 94 90 89 82 75 89 84 75 75 71 69 65 66 66 67 65 64 64 61 56 45 39 40 32 19 18 13 3 4 4
96 98 98 96 94 93 91 90 90 93 94 93 95 97 96 97 97 98 95 83 85 81 79 72 72 71 69 68 68 67 66 63 59 54 48 51 47 42 34 15 359 348 332 323
96 96 96 98 98 94 91 90 90 88 87 84 82 87 97 97 82 79 88 88 85 79 81 85 74 69 65 64 65 65 63 61 56 38 39 53 53 36 22 342 329 317 321 324
95 95 93 94 94 93 95 96 93 89 88 84 80 79 85 81 96 105 94 91 89 87 76 61 66 62 64 69 76 77 77 67 51 60 58 71 5 348 325 327 314 308 311 309
94 90 88 87 91 95 97 98 95 96 98 93 82 79 80 84 88 90 88 88 81 75 74 66 60 58 66 82 86 84 71 52 47 47 61 21 346 333 317 316 313 310 302 309
83 87 88 83 75 81 86 92 98 96 95 100 98 90 91 89 87 88 84 79 76 75 73 53 49 56 78 73 58 22 42 44 44 54 29 348 330 310 319 318 317 319 323 324